TimeEDT,TemperatureF,Dew PointF,Humidity,Sea Level PressureIn,VisibilityMPH,Wind Direction,Wind SpeedMPH,Gust SpeedMPH,PrecipitationIn,Events,Conditions,WindDirDegrees,DateUTC
12:03 AM,53.6,53.6,100,30.05,1.5,Calm,Calm,-,N/A,,Clear,0,2012-10-05 04:03:00
12:20 AM,51.8,50.0,94,30.05,0.2,SSE,3.5,-,N/A,Fog,Fog,160,2012-10-05 04:20:00
12:27 AM,51.8,50.0,94,30.05,0.2,SSE,3.5,-,N/A,Fog,Fog,160,2012-10-05 04:27:00
12:36 AM,51.8,50.0,94,30.05,0.5,Calm,Calm,-,N/A,Fog,Fog,0,2012-10-05 04:36:00
12:54 AM,52.0,51.1,97,30.04,0.5,SSE,3.5,-,N/A,Fog,Fog,150,2012-10-05 04:54:00
1:16 AM,51.8,51.8,100,30.04,0.2,Calm,Calm,-,N/A,Fog,Fog,0,2012-10-05 05:16:00
1:54 AM,51.1,51.1,100,30.04,0.2,Calm,Calm,-,N/A,Fog,Fog,0,2012-10-05 05:54:00
2:24 AM,51.8,50.0,94,30.04,0.5,Calm,Calm,-,N/A,Fog,Fog,0,2012-10-05 06:24:00
2:47 AM,50.0,48.2,94,30.04,0.2,Calm,Calm,-,N/A,Fog,Fog,0,2012-10-05 06:47:00
3:31 AM,48.2,48.2,100,30.04,0.5,Calm,Calm,-,N/A,Fog,Fog,0,2012-10-05 07:31:00
3:43 AM,50.0,48.2,94,30.05,0.2,Calm,Calm,-,N/A,Fog,Fog,0,2012-10-05 07:43:00
3:54 AM,48.0,46.9,96,30.05,0.2,Calm,Calm,-,N/A,Fog,Fog,0,2012-10-05 07:54:00
4:54 AM,48.0,46.9,96,30.05,0.2,Calm,Calm,-,N/A,Fog,Fog,0,2012-10-05 08:54:00
5:31 AM,46.4,46.4,100,30.05,0.8,Calm,Calm,-,N/A,,Mist,0,2012-10-05 09:31:00
5:54 AM,46.9,46.0,97,30.05,0.5,Calm,Calm,-,N/A,Fog,Fog,0,2012-10-05 09:54:00
6:26 AM,46.4,46.4,100,30.05,0.2,Calm,Calm,-,0.01,Fog,Fog,0,2012-10-05 10:26:00
6:54 AM,45.0,44.1,97,30.05,0.2,Calm,Calm,-,0.01,Fog,Fog,0,2012-10-05 10:54:00
7:01 AM,44.6,44.6,100,30.05,0.5,Calm,Calm,-,N/A,Fog,Fog,0,2012-10-05 11:01:00
7:08 AM,44.6,44.6,100,30.05,1.2,Calm,Calm,-,N/A,,Scattered Clouds,0,2012-10-05 11:08:00
7:28 AM,48.2,46.4,93,30.05,2.0,Calm,Calm,-,N/A,,Clear,0,2012-10-05 11:28:00
7:30 AM,48.2,46.4,93,30.05,1.5,Calm,Calm,-,N/A,,Partly Cloudy,0,2012-10-05 11:30:00
7:46 AM,48.2,46.4,93,30.05,3.0,Calm,Calm,-,N/A,,Clear,0,2012-10-05 11:46:00
7:54 AM,48.9,48.0,97,30.05,3.0,Calm,Calm,-,N/A,,Clear,0,2012-10-05 11:54:00
8:03 AM,50.0,50.0,100,30.05,2.0,Calm,Calm,-,N/A,,Clear,0,2012-10-05 12:03:00
8:24 AM,53.6,51.8,94,30.05,3.0,Calm,Calm,-,N/A,,Clear,0,2012-10-05 12:24:00
8:54 AM,55.9,54.0,93,30.05,5.0,Calm,Calm,-,N/A,,Clear,0,2012-10-05 12:54:00
9:54 AM,61.0,57.0,87,30.04,10.0,Calm,Calm,-,N/A,,Clear,0,2012-10-05 13:54:00
10:54 AM,64.0,53.1,67,30.05,10.0,SW,3.5,-,N/A,,Clear,230,2012-10-05 14:54:00
11:54 AM,66.9,54.0,63,30.02,10.0,Calm,Calm,-,N/A,,Clear,0,2012-10-05 15:54:00
12:54 PM,70.0,55.0,59,29.99,10.0,Calm,Calm,-,N/A,,Clear,0,2012-10-05 16:54:00
1:54 PM,73.0,54.0,51,29.96,10.0,Variable,3.5,-,N/A,,Clear,0,2012-10-05 17:54:00
2:54 PM,73.0,52.0,48,29.95,10.0,West,3.5,-,N/A,,Overcast,270,2012-10-05 18:54:00
3:54 PM,75.0,53.1,46,29.93,10.0,Calm,Calm,-,N/A,,Mostly Cloudy,0,2012-10-05 19:54:00
4:54 PM,73.9,54.0,50,29.93,10.0,Calm,Calm,-,N/A,,Partly Cloudy,0,2012-10-05 20:54:00
5:54 PM,69.1,55.9,63,29.94,10.0,West,4.6,-,N/A,,Clear,280,2012-10-05 21:54:00
6:54 PM,61.0,57.9,90,29.94,10.0,SSE,3.5,-,N/A,,Clear,150,2012-10-05 22:54:00
7:54 PM,60.1,55.9,86,29.93,10.0,Calm,Calm,-,N/A,,Partly Cloudy,0,2012-10-05 23:54:00
8:54 PM,61.0,57.9,90,29.91,8.0,Calm,Calm,-,0.00,Rain,Light Rain,0,2012-10-06 00:54:00
9:18 PM,62.6,60.8,94,29.95,1.8,NW,5.8,-,0.09,Rain,Heavy Rain,320,2012-10-06 01:18:00
9:25 PM,62.6,60.8,94,29.95,3.0,Calm,Calm,-,0.10,Rain,Light Rain,0,2012-10-06 01:25:00
9:54 PM,62.1,60.1,93,29.94,8.0,SE,4.6,-,0.10,,Overcast,130,2012-10-06 01:54:00
10:54 PM,62.1,60.1,93,29.91,8.0,WNW,3.5,-,N/A,,Overcast,300,2012-10-06 02:54:00
11:54 PM,62.1,60.1,93,29.89,6.0,Calm,Calm,-,0.01,Rain,Light Rain,0,2012-10-06 03:54:00